Probability
13 16 29 26 32 55 58 61 65 68 68 55 39 35 42 42 42 45 48 48 45 45 48 52 48 52 42 39 35 26 19 26 29 26 19 23 19 26 32 26 26 26 19
23 19 29 29 35 61 65 58 58 58 58 61 58 52 48 45 45 45 48 45 45 48 35 55 55 48 55 48 48 52 26 19 23 32 29 19 19 32 13 16 26 26 23
26 23 29 42 45 48 58 42 61 61 65 61 45 45 52 45 35 48 55 48 52 52 55 52 52 55 45 48 52 52 45 23 23 29 19 19 16 23 13 19 19 23 26
23 35 39 45 45 52 55 61 68 68 71 55 52 45 42 45 48 65 61 55 58 55 52 45 48 52 35 48 42 35 39 48 39 29 35 26 23 19 26 16 13 16 19
26 32 32 45 39 42 52 65 71 71 68 65 48 48 39 55 58 65 68 68 58 52 45 48 52 55 48 52 48 52 48 39 39 29 16 19 26 16 16 10 16 16 19
26 32 35 48 42 39 52 55 68 68 68 61 52 55 55 52 61 65 55 55 58 52 45 55 58 55 48 48 55 52 48 48 42 42 26 26 23 16 16 13 19 13 19
29 35 35 48 55 45 55 61 65 65 71 65 52 48 58 61 61 48 48 45 32 42 42 39 48 45 45 42 48 42 42 45 55 48 45 32 29 26 23 6 13 10 6
23 35 35 42 58 55 48 61 65 61 61 58 48 45 55 45 39 52 42 42 32 35 39 39 45 48 42 39 48 35 42 48 48 39 45 39 26 26 19 16 19 13 10
29 32 32 42 52 52 52 55 65 71 58 58 61 58 58 58 48 61 39 29 35 32 35 39 42 42 39 39 45 42 45 48 45 29 42 35 23 23 26 23 26 23 6
23 32 32 39 48 52 55 55 61 65 61 55 58 48 52 48 55 39 39 35 35 35 32 32 35 35 39 42 52 48 48 48 48 39 39 39 23 26 23 23 23 23 19
26 39 42 45 39 42 48 52 48 55 58 58 55 55 52 48 45 45 42 42 35 32 32 35 35 35 35 39 39 32 42 45 42 42 26 29 29 23 26 23 19 23 19
39 39 42 45 42 45 45 48 48 45 52 55 58 52 55 45 42 42 42 42 39 35 39 32 39 35 32 32 35 32 29 35 39 32 29 23 23 29 26 26 26 29 32
42 35 42 48 42 48 52 52 52 48 42 48 52 52 52 48 48 48 48 35 39 39 39 39 29 29 32 32 32 32 26 29 35 32 23 23 23 26 19 29 23 19 16
48 48 48 52 55 61 61 58 55 52 45 52 45 48 52 48 45 45 45 39 39 39 32 32 35 26 26 32 32 29 35 35 32 26 26 26 26 26 29 26 26 26 26
45 48 52 55 65 65 65 55 52 52 52 48 48 45 48 42 45 45 42 39 39 35 39 35 32 26 23 23 29 29 32 35 35 26 26 26 26 26 26 16 26 26 26
52 52 55 52 52 55 55 48 52 48 45 48 48 48 48 42 45 35 35 32 42 35 39 39 32 29 23 16 13 19 29 35 32 29 26 26 26 10 3 3 3 6 19
42 42 45 52 52 55 55 48 45 45 45 48 45 42 42 39 35 39 35 32 42 42 35 32 32 35 26 3 0 0 19 29 26 26 32 19 13 13 19 3 0 3 0
35 39 45 55 48 48 48 45 45 42 39 39 42 35 35 35 35 35 35 39 39 42 35 32 29 32 26 6 0 0 6 16 16 26 26 26 26 19 19 19 16 23 19
42 39 45 42 48 48 42 39 39 42 39 39 39 35 35 35 35 35 35 42 45 42 42 32 29 32 26 6 0 0 10 16 23 23 16 19 19 10 0 10 19 19 16
35 39 42 35 39 42 42 42 32 32 29 29 35 35 35 35 39 39 42 39 39 32 23 19 19 23 23 6 3 0 16 23 16 19 19 10 6 6 0 13 16 16 13
39 35 35 35 42 39 39 39 39 39 29 29 29 26 29 35 35 35 35 32 32 26 26 23 19 23 16 13 3 0 19 19 16 16 16 6 0 0 0 0 13 6 10
32 32 35 42 32 29 35 35 35 32 32 29 29 26 26 23 23 35 35 29 32 29 29 29 26 16 13 16 3 0 0 0 16 16 13 6 0 0 0 0 0 0 0
29 29 29 26 26 32 32 29 26 29 29 29 32 32 32 26 26 29 35 35 32 26 26 23 26 16 13 10 0 0 0 0 6 3 0 0 0 0 0 0 0 0 0
26 29 26 23 23 26 26 26 29 26 29 32 32 26 29 19 19 29 23 35 29 29 29 26 23 16 16 13 0 0 0 0 0 0 0 0 0 0 0 0 0 0 3
23 26 29 26 26 19 19 16 19 23 23 26 26 23 16 16 19 16 16 16 19 13 16 19 19 16 16 3 0 3 3 3 3 0 6 6 6 3 0 10 3 3 6
19 19 26 26 16 16 16 16 19 19 19 19 26 19 19 16 16 13 3 0 0 0 0 0 3 6 0 0 0 0 0 0 0 0 6 6 6 3 6 6 10 6 3
Height
5911 5910 5909 5908 5907 5906 5906 5905 5904 5903 5902 5901 5901 5900 5899 5899 5898 5898 5898 5897 5897 5896 5896 5896 5895 5894 5894 5892 5892 5891 5890 5889 5888 5887 5887 5886 5885 5885 5885 5884 5883 5882 5881
5911 5910 5909 5908 5907 5906 5905 5905 5904 5903 5902 5901 5900 5899 5898 5898 5897 5897 5896 5896 5896 5895 5895 5895 5894 5893 5892 5891 5891 5890 5889 5887 5886 5886 5885 5884 5884 5883 5882 5881 5880 5879 5878
5910 5909 5908 5907 5906 5906 5905 5904 5903 5902 5901 5899 5898 5897 5897 5896 5896 5896 5895 5895 5895 5894 5894 5893 5893 5892 5891 5890 5889 5888 5887 5886 5885 5884 5883 5883 5882 5881 5880 5878 5877 5876 5875
5909 5908 5907 5906 5905 5905 5904 5903 5902 5901 5900 5898 5897 5896 5895 5895 5895 5894 5894 5894 5893 5893 5892 5892 5891 5890 5890 5889 5887 5886 5885 5884 5883 5882 5881 5880 5879 5878 5877 5876 5874 5872 5871
5908 5907 5906 5905 5904 5904 5903 5902 5901 5900 5899 5898 5896 5895 5894 5894 5893 5893 5892 5892 5892 5891 5890 5890 5889 5888 5887 5886 5885 5884 5883 5882 5881 5880 5878 5877 5876 5875 5874 5873 5871 5869 5868
5906 5905 5904 5903 5903 5902 5901 5900 5900 5899 5898 5897 5895 5895 5894 5893 5892 5892 5891 5890 5890 5889 5888 5888 5887 5886 5885 5884 5883 5882 5881 5880 5878 5877 5876 5875 5873 5872 5871 5870 5868 5866 5864
5903 5903 5902 5901 5901 5900 5899 5899 5898 5897 5896 5895 5894 5893 5892 5892 5891 5890 5889 5888 5888 5887 5886 5885 5885 5884 5883 5882 5880 5879 5878 5877 5876 5874 5873 5871 5870 5869 5868 5866 5864 5863 5861
5901 5900 5899 5899 5898 5898 5897 5896 5896 5895 5894 5893 5892 5892 5891 5890 5889 5888 5887 5886 5885 5885 5884 5883 5882 5881 5880 5879 5878 5876 5875 5874 5873 5871 5870 5868 5867 5865 5864 5862 5861 5859 5857
5898 5897 5896 5896 5895 5895 5894 5894 5893 5892 5892 5891 5890 5889 5889 5888 5887 5886 5885 5884 5883 5882 5882 5881 5880 5878 5877 5876 5874 5873 5872 5870 5869 5867 5866 5864 5863 5861 5860 5858 5856 5855 5853
5895 5894 5893 5893 5893 5892 5891 5891 5890 5889 5889 5888 5888 5887 5886 5885 5885 5884 5883 5882 5881 5880 5879 5878 5877 5875 5874 5872 5871 5870 5868 5867 5865 5863 5862 5860 5859 5857 5856 5854 5852 5850 5848
5891 5891 5890 5890 5889 5889 5888 5887 5887 5886 5886 5886 5885 5884 5883 5883 5882 5881 5880 5879 5878 5877 5876 5875 5873 5872 5870 5869 5867 5866 5864 5863 5861 5859 5857 5856 5854 5852 5851 5849 5847 5845 5843
5887 5887 5886 5886 5886 5886 5885 5884 5884 5883 5883 5883 5882 5881 5880 5880 5879 5878 5876 5875 5874 5873 5872 5871 5869 5868 5866 5865 5863 5862 5860 5858 5857 5855 5853 5851 5849 5847 5845 5843 5841 5839 5837
5883 5883 5882 5882 5882 5882 5882 5881 5881 5880 5880 5879 5878 5878 5877 5876 5875 5874 5873 5871 5870 5869 5868 5866 5865 5864 5862 5860 5859 5857 5855 5854 5852 5850 5848 5846 5844 5842 5840 5838 5836 5834 5832
5879 5879 5878 5878 5878 5878 5878 5877 5877 5876 5876 5875 5874 5874 5873 5871 5870 5869 5868 5867 5866 5865 5863 5862 5860 5858 5857 5855 5853 5851 5850 5848 5846 5844 5842 5840 5838 5836 5834 5832 5830 5828 5826
5874 5874 5874 5873 5873 5873 5873 5873 5872 5872 5871 5871 5870 5869 5868 5867 5866 5865 5863 5862 5861 5859 5857 5856 5854 5852 5851 5849 5847 5845 5843 5842 5840 5838 5836 5834 5832 5830 5828 5826 5824 5822 5820
5868 5868 5868 5868 5868 5869 5869 5868 5868 5867 5866 5865 5864 5863 5863 5862 5861 5859 5858 5856 5855 5853 5851 5850 5848 5846 5844 5843 5841 5839 5837 5835 5833 5831 5829 5827 5825 5823 5821 5819 5818 5816 5814
5862 5863 5863 5863 5863 5863 5863 5863 5862 5862 5860 5859 5859 5858 5857 5856 5855 5853 5852 5850 5848 5847 5845 5843 5841 5839 5838 5836 5834 5831 5830 5828 5826 5824 5822 5820 5818 5817 5815 5813 5811 5809 5807
5856 5856 5857 5857 5857 5857 5857 5856 5856 5856 5855 5853 5853 5852 5851 5850 5848 5847 5846 5844 5842 5840 5838 5836 5834 5832 5830 5828 5826 5824 5822 5820 5818 5816 5815 5813 5811 5809 5807 5805 5803 5802 5800
5850 5850 5851 5851 5851 5851 5850 5850 5850 5849 5848 5847 5847 5846 5845 5843 5842 5840 5839 5837 5835 5833 5831 5829 5827 5825 5822 5820 5818 5816 5814 5812 5810 5808 5806 5804 5803 5801 5799 5797 5795 5794 5792
5843 5844 5844 5844 5844 5844 5844 5844 5843 5842 5841 5841 5840 5839 5838 5837 5835 5834 5832 5830 5828 5826 5824 5822 5819 5817 5815 5813 5810 5807 5805 5803 5801 5800 5798 5796 5794 5793 5790 5788 5787 5785 5784
5836 5837 5837 5837 5837 5837 5837 5837 5836 5835 5834 5834 5833 5832 5831 5829 5828 5827 5825 5823 5821 5819 5817 5814 5812 5809 5807 5805 5802 5799 5797 5795 5793 5791 5789 5787 5785 5783 5781 5780 5778 5777 5775
5829 5829 5829 5829 5830 5830 5830 5829 5828 5828 5827 5826 5825 5824 5823 5822 5820 5819 5817 5815 5813 5811 5808 5806 5804 5801 5799 5797 5794 5791 5789 5787 5785 5783 5781 5779 5777 5775 5772 5771 5769 5768 5766
5821 5821 5821 5822 5822 5822 5822 5821 5821 5820 5819 5818 5817 5817 5816 5814 5812 5811 5809 5807 5805 5802 5800 5798 5795 5793 5791 5788 5786 5783 5781 5779 5777 5775 5773 5770 5768 5766 5764 5762 5761 5759 5758
5813 5812 5813 5814 5814 5814 5813 5813 5812 5812 5811 5810 5809 5808 5807 5806 5804 5802 5800 5798 5796 5794 5792 5789 5787 5784 5782 5780 5778 5776 5773 5771 5769 5766 5764 5762 5760 5758 5756 5754 5752 5751 5750
5804 5804 5804 5805 5805 5805 5804 5804 5803 5802 5802 5801 5800 5799 5797 5796 5795 5793 5791 5788 5787 5785 5783 5781 5779 5776 5774 5772 5770 5767 5765 5763 5761 5758 5756 5754 5752 5750 5748 5746 5744 5743 5741
5795 5795 5795 5795 5795 5795 5795 5794 5794 5793 5793 5792 5791 5790 5788 5787 5785 5784 5782 5780 5778 5775 5774 5772 5770 5768 5766 5764 5762 5760 5758 5755 5753 5751 5748 5746 5744 5742 5740 5738 5736 5735 5733
Wind_Speed
4 3 3 3 3 3 3 3 3 3 3 3 3 4 3 4 3 4 4 4 4 5 4 5 5 5 6 6 6 7 7 7 8 8 8 8 9 10 10 11 11 12 13
5 5 4 4 4 4 4 3 3 4 4 5 5 5 5 5 4 5 5 4 5 4 5 5 6 6 7 7 8 8 8 8 8 9 9 9 10 11 11 12 13 14 14
6 6 5 5 5 4 4 4 4 4 5 5 6 5 5 5 5 5 5 5 5 4 5 6 7 7 8 8 9 9 9 9 10 10 10 10 11 12 13 13 14 14 15
7 7 7 6 5 5 5 5 5 5 5 5 6 5 6 5 5 5 5 6 6 6 6 7 8 9 9 9 10 10 10 10 10 11 11 12 12 13 13 14 14 15 15
8 9 8 8 7 7 7 7 6 6 6 7 7 6 5 5 5 6 7 7 7 8 8 8 9 10 10 10 10 10 10 11 11 12 12 13 13 13 14 14 15 16 16
10 11 10 9 8 9 9 8 7 7 8 8 8 6 6 6 6 7 8 8 8 8 9 10 10 11 11 12 11 11 12 12 12 13 13 13 14 14 14 15 15 16 16
11 11 11 10 10 11 10 10 9 8 9 8 8 8 8 8 8 8 8 9 9 9 10 10 11 12 13 13 13 12 12 13 13 13 14 14 14 15 15 16 16 17 17
11 11 11 12 12 13 12 11 10 10 10 10 10 10 10 9 10 10 10 10 10 10 11 11 12 13 14 14 13 13 13 14 14 15 15 16 15 16 17 17 17 17 18
13 12 12 13 13 13 14 13 13 12 12 11 11 11 10 11 11 11 11 12 12 12 12 12 13 14 14 14 14 14 15 15 16 16 17 17 17 18 18 18 19 19 19
14 14 14 14 14 14 14 14 14 14 13 12 11 11 11 12 12 12 12 13 13 13 13 14 15 15 15 15 15 16 16 17 17 18 18 19 19 19 19 19 19 20 21
15 15 15 15 14 14 14 14 14 14 13 13 12 12 13 13 13 14 15 15 15 15 16 16 17 16 16 16 17 17 18 18 18 19 19 19 20 21 21 21 22 22 22
16 16 16 16 16 16 16 15 15 15 14 14 14 14 14 15 15 16 16 16 17 17 17 18 18 18 18 18 18 19 19 20 20 20 20 20 21 22 23 23 23 23 22
17 17 16 17 17 17 17 16 16 16 16 16 16 16 16 16 17 18 18 17 17 17 18 19 20 20 20 20 20 21 21 22 22 22 23 23 24 23 23 24 24 23 23
17 17 17 17 17 18 19 19 18 18 18 17 17 17 18 18 18 19 19 18 19 19 20 21 21 21 21 21 22 22 23 23 24 24 24 24 24 24 24 24 23 24 24
19 19 19 19 19 19 20 20 19 19 19 18 18 18 18 19 19 20 21 21 21 22 22 22 23 22 22 22 23 23 24 24 24 25 25 25 24 24 24 24 24 24 24
20 19 20 20 20 21 21 21 20 20 20 20 20 19 20 20 21 22 23 23 23 24 23 24 23 23 24 24 25 25 25 25 25 26 26 25 25 25 24 25 25 25 24
22 22 21 22 22 22 22 22 22 22 22 22 21 21 22 22 23 24 24 24 24 25 25 24 24 25 26 26 27 27 27 27 27 27 26 27 26 26 26 25 25 25 25
23 22 22 22 22 23 23 22 22 22 23 23 22 22 23 23 24 24 25 24 25 25 25 25 26 27 28 28 28 29 29 29 28 28 28 28 27 27 27 27 27 27 27
23 23 23 23 23 24 24 23 23 23 24 24 24 23 24 24 25 26 26 25 26 26 27 27 28 28 28 27 28 29 28 28 28 28 28 28 28 28 28 28 28 28 28
24 24 24 24 25 25 24 25 25 25 26 26 26 25 25 25 26 26 26 27 27 28 28 28 29 29 29 29 28 29 28 28 28 28 28 29 29 29 30 29 29 29 28
25 26 26 26 26 25 25 26 26 26 26 26 26 26 26 27 27 28 29 29 29 29 29 29 29 29 29 29 29 29 29 28 27 27 28 28 29 30 30 29 29 29 28
26 27 27 27 27 26 26 27 27 26 27 28 28 28 28 28 29 30 30 30 30 30 29 29 29 29 29 29 29 28 28 28 28 28 28 28 28 29 29 28 28 27 27
27 28 29 28 28 28 28 28 27 27 28 28 29 30 30 31 31 31 32 32 31 30 30 30 29 29 29 30 29 28 28 29 29 29 29 29 29 29 28 27 26 26 26
28 28 29 30 30 30 30 29 29 29 29 30 31 31 32 33 33 33 33 33 32 31 30 30 29 30 30 29 28 29 29 28 28 29 28 28 28 27 26 26 25 25 25
29 29 30 30 31 31 32 32 32 31 32 32 33 33 33 34 34 33 33 32 31 30 30 30 30 29 29 28 27 27 27 28 28 27 26 26 26 25 25 25 25 26 26
29 29 29 30 30 31 32 32 32 33 34 34 34 35 34 34 34 33 33 32 30 30 30 30 29 29 28 28 27 28 28 28 27 27 26 25 25 25 25 25 25 26 26
Wind_Direction
329 331 329 321 320 320 316 310 304 284 281 280 290 297 285 278 275 281 277 281 282 284 285 291 304 307 310 310 308 300 296 296 298 298 295 291 284 283 287 285 282 281 281
314 316 320 318 308 312 313 311 315 306 295 285 286 284 283 285 279 278 276 280 287 292 298 297 303 308 308 310 308 306 302 302 300 297 296 294 292 290 290 291 287 285 284
305 307 302 305 302 302 307 305 307 304 302 295 296 291 290 284 283 282 274 279 283 286 296 301 303 304 307 308 308 307 304 300 298 296 294 293 293 295 296 296 294 290 287
298 299 295 298 297 294 304 304 303 306 308 311 314 301 294 288 285 278 275 281 283 283 289 295 299 299 303 305 306 305 305 302 299 296 293 294 296 298 299 296 295 294 293
288 289 292 293 291 291 294 298 297 299 302 306 311 304 300 297 292 287 281 283 284 285 288 293 295 297 299 301 300 299 300 300 298 296 294 294 296 297 300 299 296 296 296
286 284 286 285 283 284 286 287 286 289 295 300 298 292 294 293 291 289 288 287 286 285 286 289 291 295 298 300 298 296 296 297 296 295 294 295 297 298 299 299 297 296 296
281 284 278 275 276 277 279 280 276 283 289 294 292 285 286 284 282 285 290 292 290 293 291 292 294 296 297 299 297 294 296 297 296 296 295 295 296 298 298 299 299 298 295
279 281 276 271 274 273 272 273 272 277 280 286 288 284 282 282 282 285 291 295 292 292 292 292 295 296 297 297 294 291 294 294 294 294 294 294 294 297 297 297 298 297 295
276 277 275 272 273 273 270 269 269 276 274 276 280 284 282 283 284 288 291 294 294 291 290 290 294 296 295 295 294 293 293 293 293 292 292 292 293 295 295 295 295 295 295
275 274 272 270 274 274 271 269 269 270 271 272 276 281 280 281 281 283 289 293 293 291 290 289 292 296 297 295 293 294 294 295 294 292 291 292 292 295 294 295 297 297 296
274 275 271 269 270 272 275 271 266 266 270 274 278 280 279 277 278 281 285 288 291 291 290 292 294 295 295 294 294 294 295 296 295 293 291 293 294 294 294 295 296 298 297
272 273 270 268 267 270 272 272 274 271 274 279 279 280 279 279 280 283 288 287 289 292 291 293 294 293 293 292 292 292 293 294 295 292 292 291 292 291 292 294 295 295 295
267 269 268 267 267 267 268 270 273 274 279 282 280 280 281 281 281 284 287 288 289 291 292 294 293 292 292 292 291 291 291 292 292 291 291 292 294 296 296 296 296 295 294
265 267 267 265 263 264 266 268 273 277 280 282 282 282 281 282 283 284 285 286 287 288 290 291 291 291 290 290 290 291 291 291 291 291 291 292 294 295 296 296 295 294 294
265 266 265 262 262 264 267 269 274 276 278 279 282 284 282 281 283 285 286 288 287 288 289 290 288 288 288 288 289 290 290 290 290 290 291 293 293 294 294 294 294 293 293
263 264 263 262 262 265 267 270 273 275 276 276 277 282 285 281 281 283 284 286 288 288 289 289 287 287 288 287 288 288 288 289 289 290 291 291 292 293 293 294 293 292 292
262 261 263 264 262 263 266 268 272 274 276 277 278 279 281 282 283 282 283 287 289 288 286 288 288 288 289 288 287 287 287 288 288 289 290 291 292 292 292 292 291 290 290
264 263 264 265 264 262 265 269 272 273 274 276 276 277 280 282 284 285 286 287 290 291 289 290 289 288 288 287 286 287 288 288 288 288 289 289 289 290 289 289 289 289 288
264 263 263 263 264 265 266 267 269 272 274 276 278 278 280 282 284 285 286 288 289 290 290 289 290 290 290 288 287 288 289 289 290 290 290 289 289 289 288 287 287 286 287
264 263 263 262 264 265 268 269 271 272 273 275 276 277 278 281 283 286 287 289 289 289 290 289 288 289 289 289 290 290 291 290 291 290 289 288 287 287 288 286 285 286 285
265 264 264 265 264 265 266 270 273 275 275 275 276 278 279 281 284 285 287 289 292 291 290 290 289 289 290 289 290 290 289 291 292 291 290 290 289 288 288 285 285 285 283
264 262 263 265 265 265 267 270 272 273 273 273 275 277 281 283 284 286 288 290 290 290 290 289 288 289 290 289 291 291 291 292 293 293 292 291 291 291 289 286 284 283 283
264 263 263 265 267 266 268 270 271 272 274 274 275 277 280 282 284 285 286 288 289 288 288 289 289 289 289 289 290 291 292 291 291 292 291 291 290 291 290 288 285 283 283
265 266 264 265 266 266 267 269 271 273 275 276 277 278 279 281 283 284 285 286 286 286 287 288 289 289 289 289 289 289 289 291 292 291 291 291 291 291 290 290 289 287 285
264 266 265 266 266 265 266 268 270 272 274 275 277 279 280 281 282 284 285 285 284 285 285 286 287 288 288 288 288 289 291 292 293 293 292 292 292 291 291 290 287 286 285
266 268 267 266 268 267 267 269 271 273 274 275 276 278 281 283 283 285 286 286 284 285 285 285 285 285 286 288 289 292 292 293 294 295 294 293 292 293 292 290 288 286 285